Year,Month,Day,Hour,Minute,Value (Times are PST for temperature in C)
2008,01,21,00,00,-1.20
2008,01,21,00,01,-1.20
2008,01,21,00,02,-1.20
2008,01,21,00,03,-1.20
2008,01,21,00,04,-1.20
2008,01,21,00,05,-1.20
2008,01,21,00,06,-1.20
2008,01,21,00,07,-1.20
2008,01,21,00,08,-1.20
2008,01,21,00,09,-1.20
2008,01,21,00,10,-1.10
2008,01,21,00,11,-1.10
2008,01,21,00,12,-1.00
2008,01,21,00,13,-1.00
2008,01,21,00,14,-1.00
2008,01,21,00,15,-1.00
2008,01,21,00,16,-1.00
2008,01,21,00,17,-1.00
2008,01,21,00,18,-1.00
2008,01,21,00,19,-1.00
2008,01,21,00,20,-1.00
2008,01,21,00,21,-1.00
2008,01,21,00,22,-1.10
2008,01,21,00,23,-1.10
2008,01,21,00,24,-1.10
2008,01,21,00,25,-1.10
2008,01,21,00,26,-1.10
2008,01,21,00,27,-1.10
2008,01,21,00,28,-1.20
2008,01,21,00,29,-1.20
2008,01,21,00,30,-1.30
2008,01,21,00,31,-1.30
2008,01,21,00,32,-1.40
2008,01,21,00,33,-1.40
2008,01,21,00,34,-1.50
2008,01,21,00,35,-1.50
2008,01,21,00,36,-1.60
2008,01,21,00,37,-1.70
2008,01,21,00,38,-1.70
2008,01,21,00,39,-1.70
2008,01,21,00,40,-1.80
2008,01,21,00,41,-1.80
2008,01,21,00,42,-1.80
2008,01,21,00,43,-1.80
2008,01,21,00,44,-1.80
2008,01,21,00,45,-1.70
2008,01,21,00,46,-1.70
2008,01,21,00,47,-1.70
2008,01,21,00,48,-1.60
2008,01,21,00,49,-1.60
2008,01,21,00,50,-1.50
2008,01,21,00,51,-1.40
2008,01,21,00,52,-1.40
2008,01,21,00,53,-1.40
2008,01,21,00,54,-1.40
2008,01,21,00,55,-1.40
2008,01,21,00,56,-1.40
2008,01,21,00,57,-1.40
2008,01,21,00,58,-1.40
2008,01,21,00,59,-1.40
2008,01,21,01,00,-1.40
2008,01,21,01,01,-1.40
2008,01,21,01,02,-1.40
2008,01,21,01,03,-1.40
2008,01,21,01,04,-1.40
2008,01,21,01,05,-1.50
2008,01,21,01,06,-1.50
2008,01,21,01,07,-1.60
2008,01,21,01,08,-1.60
2008,01,21,01,09,-1.60
2008,01,21,01,10,-1.60
2008,01,21,01,11,-1.60
2008,01,21,01,12,-1.60
2008,01,21,01,13,-1.60
2008,01,21,01,14,-1.60
2008,01,21,01,15,-1.60
2008,01,21,01,16,-1.60
2008,01,21,01,17,-1.60
2008,01,21,01,18,-1.60
2008,01,21,01,19,-1.50
2008,01,21,01,20,-1.50
2008,01,21,01,21,-1.40
2008,01,21,01,22,-1.40
2008,01,21,01,23,-1.30
2008,01,21,01,24,-1.30
2008,01,21,01,25,-1.20
2008,01,21,01,26,-1.20
2008,01,21,01,27,-1.10
2008,01,21,01,28,-1.10
2008,01,21,01,29,-1.10
2008,01,21,01,30,-1.10
2008,01,21,01,31,-1.10
2008,01,21,01,32,-1.20
2008,01,21,01,33,-1.30
2008,01,21,01,34,-1.40
2008,01,21,01,35,-1.50
2008,01,21,01,36,-1.60
2008,01,21,01,37,-1.70
2008,01,21,01,38,-1.80
2008,01,21,01,39,-1.80
2008,01,21,01,40,-1.90
2008,01,21,01,41,-2.00
2008,01,21,01,42,-2.00
2008,01,21,01,43,-2.00
2008,01,21,01,44,-2.10
2008,01,21,01,45,-2.10
2008,01,21,01,46,-2.10
2008,01,21,01,47,-2.10
2008,01,21,01,48,-2.00
2008,01,21,01,49,-2.00
2008,01,21,01,50,-2.00
2008,01,21,01,51,-1.90
2008,01,21,01,52,-1.90
2008,01,21,01,53,-1.80
2008,01,21,01,54,-1.80
2008,01,21,01,55,-1.80
2008,01,21,01,56,-1.80
2008,01,21,01,57,-1.80
2008,01,21,01,58,-1.80
2008,01,21,01,59,-1.90
2008,01,21,02,00,-2.00
2008,01,21,02,01,-2.10
2008,01,21,02,02,-2.00
2008,01,21,02,03,-2.00
2008,01,21,02,04,-1.90
2008,01,21,02,05,-1.90
2008,01,21,02,06,-1.90
2008,01,21,02,07,-2.00
2008,01,21,02,08,-2.00
2008,01,21,02,09,-2.00
2008,01,21,02,10,-2.00
2008,01,21,02,11,-2.10
2008,01,21,02,12,-2.10
2008,01,21,02,13,-2.10
2008,01,21,02,14,-2.10
2008,01,21,02,15,-2.10
2008,01,21,02,16,-2.10
2008,01,21,02,17,-2.10
2008,01,21,02,18,-2.10
2008,01,21,02,19,-2.10
2008,01,21,02,20,-2.00
2008,01,21,02,21,-2.00
2008,01,21,02,22,-2.00
2008,01,21,02,23,-2.00
2008,01,21,02,24,-2.00
2008,01,21,02,25,-1.90
2008,01,21,02,26,-1.90
2008,01,21,02,27,-1.90
2008,01,21,02,28,-1.90
2008,01,21,02,29,-1.90
2008,01,21,02,30,-1.80
2008,01,21,02,31,-1.80
2008,01,21,02,32,-1.80
2008,01,21,02,33,-1.80
2008,01,21,02,34,-1.80
2008,01,21,02,35,-1.80
2008,01,21,02,36,-1.80
2008,01,21,02,37,-1.70
2008,01,21,02,38,-1.70
2008,01,21,02,39,-1.70
2008,01,21,02,40,-1.70
2008,01,21,02,41,-1.70
2008,01,21,02,42,-1.70
2008,01,21,02,43,-1.70
2008,01,21,02,44,-1.80
2008,01,21,02,45,-1.80
2008,01,21,02,46,-1.80
2008,01,21,02,47,-1.90
2008,01,21,02,48,-1.90
2008,01,21,02,49,-1.90
2008,01,21,02,50,-2.00
2008,01,21,02,51,-2.00
2008,01,21,02,52,-2.00
2008,01,21,02,53,-2.10
2008,01,21,02,54,-2.10
2008,01,21,02,55,-2.10
2008,01,21,02,56,-2.10
2008,01,21,02,57,-2.10
2008,01,21,02,58,-2.10
2008,01,21,02,59,-2.10
2008,01,21,03,00,-2.00
2008,01,21,03,01,-2.00
2008,01,21,03,02,-1.90
2008,01,21,03,03,-1.90
2008,01,21,03,04,-1.90
2008,01,21,03,05,-1.90
2008,01,21,03,06,-1.90
2008,01,21,03,07,-2.00
2008,01,21,03,08,-2.10
2008,01,21,03,09,-2.10
2008,01,21,03,10,-2.10
2008,01,21,03,11,-2.00
2008,01,21,03,12,-2.00
2008,01,21,03,13,-2.00
2008,01,21,03,14,-2.00
2008,01,21,03,15,-2.00
2008,01,21,03,16,-2.00
2008,01,21,03,17,-2.00
2008,01,21,03,18,-2.10
2008,01,21,03,19,-2.10
2008,01,21,03,20,-2.10
2008,01,21,03,21,-2.10
2008,01,21,03,22,-2.00
2008,01,21,03,23,-2.00
2008,01,21,03,24,-1.90
2008,01,21,03,25,-1.90
2008,01,21,03,26,-1.90
2008,01,21,03,27,-1.90
2008,01,21,03,28,-2.00
2008,01,21,03,29,-2.00
2008,01,21,03,30,-2.10
2008,01,21,03,31,-2.10
2008,01,21,03,32,-2.10
2008,01,21,03,33,-2.10
2008,01,21,03,34,-2.00
2008,01,21,03,35,-2.00
2008,01,21,03,36,-2.10
2008,01,21,03,37,-2.10
2008,01,21,03,38,-2.10
2008,01,21,03,39,-2.10
2008,01,21,03,40,-2.10
2008,01,21,03,41,-2.10
2008,01,21,03,42,-2.10
2008,01,21,03,43,-2.10
2008,01,21,03,44,-2.10
2008,01,21,03,45,-2.10
2008,01,21,03,46,-2.10
2008,01,21,03,47,-2.10
2008,01,21,03,48,-2.10
2008,01,21,03,49,-2.10
2008,01,21,03,50,-2.20
2008,01,21,03,51,-2.20
2008,01,21,03,52,-2.20
2008,01,21,03,53,-2.30
2008,01,21,03,54,-2.30
2008,01,21,03,55,-2.30
2008,01,21,03,56,-2.30
2008,01,21,03,57,-2.30
2008,01,21,03,58,-2.30
2008,01,21,03,59,-2.30
2008,01,21,04,00,-2.30
2008,01,21,04,01,-2.30
2008,01,21,04,02,-2.40
2008,01,21,04,03,-2.40
2008,01,21,04,04,-2.40
2008,01,21,04,05,-2.50
2008,01,21,04,06,-2.50
2008,01,21,04,07,-2.60
2008,01,21,04,08,-2.60
2008,01,21,04,09,-2.60
2008,01,21,04,10,-2.60
2008,01,21,04,32,-2.70
2008,01,21,04,51,-2.70
2008,01,21,05,08,-2.30
2008,01,21,05,25,-2.10
2008,01,21,05,43,-1.90
2008,01,21,06,00,-2.60
2008,01,21,06,25,-2.90
2008,01,21,06,45,-2.90
2008,01,21,06,48,-3.00
2008,01,21,06,49,-3.00
2008,01,21,06,50,-3.00
2008,01,21,06,51,-3.00
2008,01,21,06,52,-3.10
2008,01,21,06,53,-3.10
2008,01,21,06,54,-3.10
2008,01,21,06,55,-3.10
2008,01,21,06,56,-3.10
2008,01,21,06,57,-3.10
2008,01,21,06,58,-3.10
2008,01,21,06,59,-3.10
2008,01,21,07,00,-3.10
2008,01,21,07,01,-3.10
2008,01,21,07,02,-3.10
2008,01,21,07,03,-3.10
2008,01,21,07,04,-3.00
2008,01,21,07,05,-2.90
2008,01,21,07,06,-2.90
2008,01,21,07,07,-2.90
2008,01,21,07,08,-3.00
2008,01,21,07,09,-3.00
2008,01,21,07,10,-3.00
2008,01,21,07,11,-3.00
2008,01,21,07,12,-3.00
2008,01,21,07,13,-3.00
2008,01,21,07,14,-3.10
2008,01,21,07,15,-3.10
2008,01,21,07,16,-3.10
2008,01,21,07,17,-3.10
2008,01,21,07,18,-3.20
2008,01,21,07,19,-3.20
2008,01,21,07,20,-3.10
2008,01,21,07,21,-3.10
2008,01,21,07,22,-3.10
2008,01,21,07,23,-3.00
2008,01,21,07,24,-3.00
2008,01,21,07,25,-2.90
2008,01,21,07,26,-2.90
2008,01,21,07,27,-2.80
2008,01,21,07,28,-2.70
2008,01,21,07,29,-2.70
2008,01,21,07,30,-2.60
2008,01,21,07,31,-2.50
2008,01,21,07,32,-2.40
2008,01,21,07,33,-2.30
2008,01,21,07,34,-2.20
2008,01,21,07,35,-2.00
2008,01,21,07,36,-1.90
2008,01,21,07,37,-1.80
2008,01,21,07,38,-1.80
2008,01,21,07,39,-1.80
2008,01,21,07,40,-1.80
2008,01,21,07,41,-1.80
2008,01,21,07,42,-1.90
2008,01,21,07,43,-1.90
2008,01,21,07,44,-2.00
2008,01,21,07,45,-2.00
2008,01,21,07,46,-2.00
2008,01,21,07,47,-2.00
2008,01,21,07,48,-2.00
2008,01,21,07,49,-2.10
2008,01,21,07,50,-2.10
2008,01,21,07,51,-2.20
2008,01,21,07,52,-2.20
2008,01,21,07,53,-2.20
2008,01,21,07,54,-2.30
2008,01,21,07,55,-2.30
2008,01,21,07,56,-2.30
2008,01,21,07,57,-2.40
2008,01,21,07,58,-2.40
2008,01,21,07,59,-2.50
2008,01,21,08,00,-2.50
2008,01,21,08,01,-2.60
2008,01,21,08,02,-2.70
2008,01,21,08,03,-2.80
2008,01,21,08,04,-2.80
2008,01,21,08,05,-2.90
2008,01,21,08,06,-2.90
2008,01,21,08,07,-2.90
2008,01,21,08,08,-2.90
2008,01,21,08,09,-2.90
2008,01,21,08,10,-3.00
2008,01,21,08,11,-3.00
2008,01,21,08,12,-3.00
2008,01,21,08,13,-3.00
2008,01,21,08,14,-3.00
2008,01,21,08,15,-3.00
2008,01,21,08,16,-2.90
2008,01,21,08,17,-2.90
2008,01,21,08,18,-2.90
2008,01,21,08,19,-2.90
2008,01,21,08,20,-2.90
2008,01,21,08,21,-2.90
2008,01,21,08,22,-2.90
2008,01,21,08,23,-2.80
2008,01,21,08,24,-2.80
2008,01,21,08,25,-2.80
2008,01,21,08,26,-2.80
2008,01,21,08,27,-2.80
2008,01,21,08,28,-2.70
2008,01,21,08,29,-2.60
2008,01,21,08,30,-2.60
2008,01,21,08,31,-2.60
2008,01,21,08,32,-2.50
2008,01,21,08,33,-2.50
2008,01,21,08,34,-2.50
2008,01,21,08,35,-2.40
2008,01,21,08,36,-2.40
2008,01,21,08,37,-2.40
2008,01,21,08,38,-2.30
2008,01,21,08,39,-2.30
2008,01,21,08,40,-2.30
2008,01,21,08,41,-2.30
2008,01,21,08,42,-2.20
2008,01,21,08,43,-2.20
2008,01,21,08,44,-2.20
2008,01,21,08,45,-2.20
2008,01,21,08,46,-2.20
2008,01,21,08,47,-2.20
2008,01,21,08,48,-2.10
2008,01,21,08,49,-2.10
2008,01,21,08,50,-2.10
2008,01,21,08,51,-2.10
2008,01,21,08,52,-2.10
2008,01,21,08,53,-2.00
2008,01,21,08,54,-2.00
2008,01,21,08,55,-2.00
2008,01,21,08,56,-2.00
2008,01,21,08,57,-2.00
2008,01,21,08,58,-2.00
2008,01,21,08,59,-2.00
2008,01,21,09,00,-1.90
2008,01,21,09,01,-1.90
2008,01,21,09,02,-1.90
2008,01,21,09,03,-1.90
2008,01,21,09,04,-1.80
2008,01,21,09,05,-1.80
2008,01,21,09,06,-1.80
2008,01,21,09,07,-1.80
2008,01,21,09,08,-1.70
2008,01,21,09,09,-1.70
2008,01,21,09,10,-1.60
2008,01,21,09,11,-1.60
2008,01,21,09,12,-1.50
2008,01,21,09,13,-1.40
2008,01,21,09,14,-1.40
2008,01,21,09,15,-1.30
2008,01,21,09,16,-1.20
2008,01,21,09,17,-1.20
2008,01,21,09,18,-1.10
2008,01,21,09,19,-1.10
2008,01,21,09,20,-1.00
2008,01,21,09,21,-1.00
2008,01,21,09,22,-0.90
2008,01,21,09,23,-0.90
2008,01,21,09,24,-0.80
2008,01,21,09,25,-0.80
2008,01,21,09,26,-0.80
2008,01,21,09,27,-0.70
2008,01,21,09,28,-0.70
2008,01,21,09,29,-0.60
2008,01,21,09,30,-0.60
2008,01,21,09,31,-0.50
2008,01,21,09,32,-0.40
2008,01,21,09,33,-0.40
2008,01,21,09,34,-0.30
2008,01,21,09,35,-0.30
2008,01,21,09,36,-0.20
2008,01,21,09,37,-0.20
2008,01,21,09,38,-0.10
2008,01,21,09,39,0.00
2008,01,21,09,40,0.00
2008,01,21,09,41,0.10
2008,01,21,09,42,0.20
2008,01,21,09,43,0.20
2008,01,21,09,44,0.20
2008,01,21,09,45,0.30
2008,01,21,09,46,0.30
2008,01,21,09,47,0.30
2008,01,21,09,48,0.40
2008,01,21,09,49,0.40
2008,01,21,09,50,0.40
2008,01,21,09,51,0.50
2008,01,21,09,52,0.50
2008,01,21,09,53,0.60
2008,01,21,09,54,0.70
2008,01,21,09,55,0.80
2008,01,21,09,56,0.90
2008,01,21,09,57,1.00
2008,01,21,09,58,1.00
2008,01,21,09,59,1.10
2008,01,21,10,00,1.10
2008,01,21,10,01,1.20
2008,01,21,10,02,1.20
2008,01,21,10,03,1.30
2008,01,21,10,04,1.30
2008,01,21,10,05,1.30
2008,01,21,10,06,1.40
2008,01,21,10,07,1.40
2008,01,21,10,08,1.50
2008,01,21,10,09,1.60
2008,01,21,10,10,1.70
2008,01,21,10,11,1.80
2008,01,21,10,12,1.80
2008,01,21,10,13,1.90
2008,01,21,10,14,1.90
2008,01,21,10,15,2.00
2008,01,21,10,16,2.10
2008,01,21,10,17,2.10
2008,01,21,10,18,2.20
2008,01,21,10,19,2.30
2008,01,21,10,20,2.30
2008,01,21,10,21,2.40
2008,01,21,10,22,2.40
2008,01,21,10,23,2.50
2008,01,21,10,24,2.50
2008,01,21,10,25,2.60
2008,01,21,10,26,2.60
2008,01,21,10,27,2.70
2008,01,21,10,28,2.70
2008,01,21,10,29,2.70
2008,01,21,10,30,2.70
2008,01,21,10,31,2.70
2008,01,21,10,32,2.80
2008,01,21,10,33,2.80
2008,01,21,10,34,2.80
2008,01,21,10,35,2.90
2008,01,21,10,36,2.90
2008,01,21,10,37,2.90
2008,01,21,10,38,3.00
2008,01,21,10,39,3.00
2008,01,21,10,40,3.00
2008,01,21,10,41,3.00
2008,01,21,10,42,3.10
2008,01,21,10,43,3.10
2008,01,21,10,44,3.10
2008,01,21,10,45,3.10
2008,01,21,10,46,3.10
2008,01,21,10,47,3.10
2008,01,21,10,48,3.10
2008,01,21,10,49,3.10
2008,01,21,10,50,3.10
2008,01,21,10,51,3.10
2008,01,21,10,52,3.10
2008,01,21,10,53,3.10
2008,01,21,10,54,3.10
2008,01,21,10,55,3.20
2008,01,21,10,56,3.20
2008,01,21,10,57,3.20
2008,01,21,10,58,3.20
2008,01,21,10,59,3.20
2008,01,21,11,00,3.20
2008,01,21,11,01,3.20
2008,01,21,11,02,3.30
2008,01,21,11,03,3.20
2008,01,21,11,04,3.20
2008,01,21,11,05,3.20
2008,01,21,11,06,3.30
2008,01,21,11,07,3.30
2008,01,21,11,08,3.30
2008,01,21,11,09,3.30
2008,01,21,11,10,3.40
2008,01,21,11,11,3.40
2008,01,21,11,12,3.40
2008,01,21,11,13,3.40
2008,01,21,11,14,3.40
2008,01,21,11,15,3.30
2008,01,21,11,16,3.30
2008,01,21,11,17,3.30
2008,01,21,11,18,3.30
2008,01,21,11,19,3.30
2008,01,21,11,20,3.30
2008,01,21,11,21,3.40
2008,01,21,11,22,3.40
2008,01,21,11,23,3.50
2008,01,21,11,24,3.50
2008,01,21,11,25,3.50
2008,01,21,11,26,3.50
2008,01,21,11,27,3.60
2008,01,21,11,28,3.60
2008,01,21,11,29,3.60
2008,01,21,11,30,3.60
2008,01,21,11,31,3.60
2008,01,21,11,32,3.70
2008,01,21,11,33,3.70
2008,01,21,11,34,3.70
2008,01,21,11,35,3.70
2008,01,21,11,36,3.70
2008,01,21,11,37,3.80
2008,01,21,11,38,3.80
2008,01,21,11,39,3.80
2008,01,21,11,40,3.80
2008,01,21,11,41,3.90
2008,01,21,11,42,3.90
2008,01,21,11,43,4.00
2008,01,21,11,44,4.00
2008,01,21,11,45,4.00
2008,01,21,11,46,4.00
2008,01,21,11,47,4.10
2008,01,21,11,48,4.10
2008,01,21,11,49,4.10
2008,01,21,11,50,4.10
2008,01,21,11,51,4.10
2008,01,21,11,52,4.10
2008,01,21,11,53,4.10
2008,01,21,11,54,4.10
2008,01,21,11,55,4.20
2008,01,21,11,56,4.10
2008,01,21,11,57,4.10
2008,01,21,11,58,4.10
2008,01,21,11,59,4.10
2008,01,21,12,00,4.10
2008,01,21,12,01,4.10
2008,01,21,12,02,4.20
2008,01,21,12,03,4.20
2008,01,21,12,04,4.30
2008,01,21,12,05,4.30
2008,01,21,12,06,4.30
2008,01,21,12,07,4.30
2008,01,21,12,08,4.30
2008,01,21,12,09,4.30
2008,01,21,12,10,4.30
2008,01,21,12,11,4.30
2008,01,21,12,12,4.30
2008,01,21,12,13,4.30
2008,01,21,12,14,4.30
2008,01,21,12,15,4.30
2008,01,21,12,16,4.30
2008,01,21,12,17,4.30
2008,01,21,12,18,4.30
2008,01,21,12,19,4.30
2008,01,21,12,20,4.30
2008,01,21,12,21,4.30
2008,01,21,12,22,4.30
2008,01,21,12,23,4.30
2008,01,21,12,24,4.30
2008,01,21,12,25,4.30
2008,01,21,12,26,4.30
2008,01,21,12,27,4.30
2008,01,21,12,28,4.30
2008,01,21,12,29,4.30
2008,01,21,12,30,4.30
2008,01,21,12,31,4.30
2008,01,21,12,32,4.30
2008,01,21,12,33,4.30
2008,01,21,12,34,4.30
2008,01,21,12,35,4.40
2008,01,21,12,36,4.40
2008,01,21,12,37,4.40
2008,01,21,12,38,4.40
2008,01,21,12,39,4.40
2008,01,21,12,40,4.50
2008,01,21,12,41,4.50
2008,01,21,12,42,4.50
2008,01,21,12,43,4.60
2008,01,21,12,44,4.60
2008,01,21,12,45,4.50
2008,01,21,12,46,4.60
2008,01,21,12,47,4.60
2008,01,21,12,48,4.70
2008,01,21,12,49,4.70
2008,01,21,12,50,4.70
2008,01,21,12,51,4.70
2008,01,21,12,52,4.70
2008,01,21,12,53,4.70
2008,01,21,12,54,4.70
2008,01,21,12,55,4.80
2008,01,21,12,56,4.80
2008,01,21,12,57,4.80
2008,01,21,12,58,4.80
2008,01,21,12,59,4.80
2008,01,21,13,00,4.80
2008,01,21,13,01,4.70
2008,01,21,13,02,4.70
2008,01,21,13,03,4.80
2008,01,21,13,04,4.80
2008,01,21,13,05,4.80
2008,01,21,13,06,4.80
2008,01,21,13,07,4.90
2008,01,21,13,08,4.90
2008,01,21,13,09,4.90
2008,01,21,13,10,4.90
2008,01,21,13,11,4.90
2008,01,21,13,12,4.80
2008,01,21,13,13,4.80
2008,01,21,13,14,4.80
2008,01,21,13,15,4.80
2008,01,21,13,16,4.80
2008,01,21,13,17,4.90
2008,01,21,13,18,4.90
2008,01,21,13,19,5.00
2008,01,21,13,20,5.10
2008,01,21,13,21,5.10
2008,01,21,13,22,5.10
2008,01,21,13,23,5.10
2008,01,21,13,24,5.10
2008,01,21,13,25,5.10
2008,01,21,13,26,5.10
2008,01,21,13,27,5.20
2008,01,21,13,28,5.20
2008,01,21,13,29,5.20
2008,01,21,13,30,5.30
2008,01,21,13,31,5.30
2008,01,21,13,32,5.30
2008,01,21,13,33,5.30
2008,01,21,13,34,5.20
2008,01,21,13,35,5.20
2008,01,21,13,36,5.10
2008,01,21,13,37,5.10
2008,01,21,13,38,5.10
2008,01,21,13,39,5.00
2008,01,21,13,40,5.00
2008,01,21,13,41,4.90
2008,01,21,13,42,4.80
2008,01,21,13,43,4.80
2008,01,21,13,44,4.80
2008,01,21,13,45,4.70
2008,01,21,13,46,4.70
2008,01,21,13,47,4.70
2008,01,21,13,48,4.70
2008,01,21,13,49,4.70
2008,01,21,13,50,4.80
2008,01,21,13,51,4.80
2008,01,21,13,52,4.90
2008,01,21,13,53,4.90
2008,01,21,13,54,5.00
2008,01,21,13,55,5.00
2008,01,21,13,56,5.00
2008,01,21,13,57,5.00
2008,01,21,13,58,5.00
2008,01,21,13,59,5.00
2008,01,21,14,00,4.90
2008,01,21,14,01,4.90
2008,01,21,14,02,4.90
2008,01,21,14,03,4.90
2008,01,21,14,04,4.90
2008,01,21,14,05,4.90
2008,01,21,14,06,4.90
2008,01,21,14,07,4.90
2008,01,21,14,08,4.90
2008,01,21,14,09,5.00
2008,01,21,14,10,5.00
2008,01,21,14,11,5.00
2008,01,21,14,12,5.10
2008,01,21,14,13,5.10
2008,01,21,14,14,5.10
2008,01,21,14,15,5.10
2008,01,21,14,16,5.10
2008,01,21,14,17,5.10
2008,01,21,14,18,5.10
2008,01,21,14,19,5.10
2008,01,21,14,20,5.00
2008,01,21,14,21,4.90
2008,01,21,14,22,4.90
2008,01,21,14,23,5.00
2008,01,21,14,24,5.10
2008,01,21,14,25,5.10
2008,01,21,14,26,5.10
2008,01,21,14,27,5.00
2008,01,21,14,28,4.90
2008,01,21,14,29,4.90
2008,01,21,14,30,4.80
2008,01,21,14,31,4.80
2008,01,21,14,32,4.70
2008,01,21,14,33,4.70
2008,01,21,14,34,4.70
2008,01,21,14,35,4.60
2008,01,21,14,36,4.60
2008,01,21,14,37,4.60
2008,01,21,14,38,4.50
2008,01,21,14,39,4.50
2008,01,21,14,40,4.50
2008,01,21,14,41,4.50
2008,01,21,14,42,4.50
2008,01,21,14,43,4.50
2008,01,21,14,44,4.50
2008,01,21,14,45,4.50
2008,01,21,14,46,4.50
2008,01,21,14,47,4.50
2008,01,21,14,48,4.50
2008,01,21,14,49,4.50
2008,01,21,14,50,4.40
2008,01,21,14,51,4.40
2008,01,21,14,52,4.40
2008,01,21,14,53,4.40
2008,01,21,14,54,4.30
2008,01,21,14,55,4.30
2008,01,21,14,56,4.30
2008,01,21,14,57,4.30
2008,01,21,14,58,4.30
2008,01,21,14,59,4.30
2008,01,21,15,00,4.30
2008,01,21,15,01,4.30
2008,01,21,15,02,4.30
2008,01,21,15,03,4.30
2008,01,21,15,04,4.30
2008,01,21,15,05,4.30
2008,01,21,15,06,4.20
2008,01,21,15,07,4.10
2008,01,21,15,08,4.10
2008,01,21,15,09,4.10
2008,01,21,15,10,4.10
2008,01,21,15,11,4.10
2008,01,21,15,12,4.00
2008,01,21,15,13,3.90
2008,01,21,15,14,3.90
2008,01,21,15,15,3.80
2008,01,21,15,16,3.80
2008,01,21,15,17,3.80
2008,01,21,15,18,3.80
2008,01,21,15,19,3.80
2008,01,21,15,20,3.80
2008,01,21,15,21,3.80
2008,01,21,15,22,3.80
2008,01,21,15,23,3.80
2008,01,21,15,24,3.80
2008,01,21,15,25,3.80
2008,01,21,15,26,3.80
2008,01,21,15,27,3.70
2008,01,21,15,28,3.70
2008,01,21,15,29,3.70
2008,01,21,15,30,3.60
2008,01,21,15,31,3.60
2008,01,21,15,32,3.50
2008,01,21,15,33,3.40
2008,01,21,15,34,3.40
2008,01,21,15,35,3.30
2008,01,21,15,36,3.30
2008,01,21,15,37,3.20
2008,01,21,15,38,3.10
2008,01,21,15,39,3.10
2008,01,21,15,40,3.00
2008,01,21,15,41,2.90
2008,01,21,15,42,2.80
2008,01,21,15,43,2.80
2008,01,21,15,44,2.70
2008,01,21,15,45,2.60
2008,01,21,15,46,2.50
2008,01,21,15,47,2.50
2008,01,21,15,48,2.40
2008,01,21,15,49,2.40
2008,01,21,15,50,2.30
2008,01,21,15,51,2.30
2008,01,21,15,52,2.30
2008,01,21,15,53,2.20
2008,01,21,15,54,2.20
2008,01,21,15,55,2.20
2008,01,21,15,56,2.20
2008,01,21,15,57,2.10
2008,01,21,15,58,2.10
2008,01,21,15,59,2.10
2008,01,21,16,00,2.10
2008,01,21,16,01,2.10
2008,01,21,16,02,2.00
2008,01,21,16,03,2.00
2008,01,21,16,04,1.90
2008,01,21,16,05,1.90
2008,01,21,16,06,1.80
2008,01,21,16,07,1.80
2008,01,21,16,08,1.70
2008,01,21,16,09,1.60
2008,01,21,16,10,1.60
2008,01,21,16,11,1.50
2008,01,21,16,12,1.40
2008,01,21,16,13,1.30
2008,01,21,16,14,1.30
2008,01,21,16,15,1.30
2008,01,21,16,16,1.30
2008,01,21,16,17,1.30
2008,01,21,16,18,1.30
2008,01,21,16,19,1.20
2008,01,21,16,20,1.20
2008,01,21,16,21,1.20
2008,01,21,16,22,1.20
2008,01,21,16,23,1.20
2008,01,21,16,24,1.10
2008,01,21,16,25,1.10
2008,01,21,16,26,1.10
2008,01,21,16,27,1.10
2008,01,21,16,28,1.10
2008,01,21,16,29,1.10
2008,01,21,16,30,1.10
2008,01,21,16,31,1.10
2008,01,21,16,32,1.10
2008,01,21,16,33,1.10
2008,01,21,16,34,1.10
2008,01,21,16,35,1.10
2008,01,21,16,36,1.10
2008,01,21,16,37,1.10
2008,01,21,16,38,1.10
2008,01,21,16,39,1.10
2008,01,21,16,40,1.10
2008,01,21,16,41,1.00
2008,01,21,16,42,1.00
2008,01,21,16,43,0.90
2008,01,21,16,44,0.90
2008,01,21,16,45,0.80
2008,01,21,16,46,0.80
2008,01,21,16,47,0.70
2008,01,21,16,48,0.70
2008,01,21,16,49,0.70
2008,01,21,16,50,0.60
2008,01,21,16,51,0.60
2008,01,21,16,52,0.50
2008,01,21,16,53,0.50
2008,01,21,16,54,0.50
2008,01,21,16,55,0.40
2008,01,21,16,56,0.40
2008,01,21,16,57,0.40
2008,01,21,16,58,0.30
2008,01,21,16,59,0.30
2008,01,21,17,00,0.30
2008,01,21,17,01,0.30
2008,01,21,17,02,0.20
2008,01,21,17,03,0.20
2008,01,21,17,04,0.20
2008,01,21,17,05,0.20
2008,01,21,17,06,0.20
2008,01,21,17,07,0.20
2008,01,21,17,08,0.10
2008,01,21,17,09,0.10
2008,01,21,17,10,0.10
2008,01,21,17,11,0.10
2008,01,21,17,12,0.00
2008,01,21,17,13,0.00
2008,01,21,17,14,0.00
2008,01,21,17,15,-0.10
2008,01,21,17,16,-0.10
2008,01,21,17,17,-0.10
2008,01,21,17,18,-0.10
2008,01,21,17,19,-0.10
2008,01,21,17,20,-0.20
2008,01,21,17,21,-0.20
2008,01,21,17,22,-0.20
2008,01,21,17,23,-0.20
2008,01,21,17,24,-0.30
2008,01,21,17,25,-0.30
2008,01,21,17,26,-0.30
2008,01,21,17,27,-0.30
2008,01,21,17,28,-0.20
2008,01,21,17,29,-0.20
2008,01,21,17,30,-0.20
2008,01,21,17,31,-0.20
2008,01,21,17,32,-0.20
2008,01,21,17,33,-0.20
2008,01,21,17,34,-0.20
2008,01,21,17,35,-0.20
2008,01,21,17,36,-0.20
2008,01,21,17,37,-0.30
2008,01,21,17,38,-0.30
2008,01,21,17,39,-0.30
2008,01,21,17,40,-0.40
2008,01,21,17,41,-0.40
2008,01,21,17,42,-0.40
2008,01,21,17,43,-0.50
2008,01,21,17,44,-0.50
2008,01,21,17,45,-0.60
2008,01,21,17,46,-0.70
2008,01,21,17,47,-0.70
2008,01,21,17,48,-0.80
2008,01,21,17,49,-0.80
2008,01,21,17,50,-0.80
2008,01,21,17,51,-0.90
2008,01,21,17,52,-0.90
2008,01,21,17,53,-0.90
2008,01,21,17,54,-0.90
2008,01,21,17,55,-0.90
2008,01,21,17,56,-0.90
2008,01,21,17,57,-1.00
2008,01,21,17,58,-1.00
2008,01,21,17,59,-1.00
2008,01,21,18,00,-1.00
2008,01,21,18,01,-1.00
2008,01,21,18,02,-1.00
2008,01,21,18,03,-1.00
2008,01,21,18,04,-1.00
2008,01,21,18,05,-1.00
2008,01,21,18,06,-1.00
2008,01,21,18,07,-1.00
2008,01,21,18,08,-1.10
2008,01,21,18,09,-1.10
2008,01,21,18,10,-1.10
2008,01,21,18,11,-1.10
2008,01,21,18,12,-1.10
2008,01,21,18,13,-1.10
2008,01,21,18,14,-1.10
2008,01,21,18,15,-1.10
2008,01,21,18,16,-1.10
2008,01,21,18,17,-1.10
2008,01,21,18,18,-1.10
2008,01,21,18,19,-1.10
2008,01,21,18,20,-1.10
2008,01,21,18,21,-1.10
2008,01,21,18,22,-1.10
2008,01,21,18,23,-1.20
2008,01,21,18,24,-1.20
2008,01,21,18,25,-1.20
2008,01,21,18,26,-1.20
2008,01,21,18,27,-1.20
2008,01,21,18,28,-1.20
2008,01,21,18,29,-1.20
2008,01,21,18,30,-1.20
2008,01,21,18,31,-1.20
2008,01,21,18,32,-1.20
2008,01,21,18,33,-1.20
2008,01,21,18,34,-1.20
2008,01,21,18,35,-1.30
2008,01,21,18,36,-1.30
2008,01,21,18,37,-1.30
2008,01,21,18,38,-1.30
2008,01,21,18,39,-1.30
2008,01,21,18,40,-1.30
2008,01,21,18,41,-1.40
2008,01,21,18,42,-1.40
2008,01,21,18,43,-1.40
2008,01,21,18,44,-1.40
2008,01,21,18,45,-1.40
2008,01,21,18,46,-1.40
2008,01,21,18,47,-1.40
2008,01,21,18,48,-1.40
2008,01,21,18,49,-1.40
2008,01,21,18,50,-1.40
2008,01,21,18,51,-1.50
2008,01,21,18,52,-1.50
2008,01,21,18,53,-1.50
2008,01,21,18,54,-1.50
2008,01,21,18,55,-1.50
2008,01,21,18,56,-1.50
2008,01,21,18,57,-1.60
2008,01,21,18,58,-1.60
2008,01,21,18,59,-1.60
2008,01,21,19,00,-1.60
2008,01,21,19,01,-1.60
2008,01,21,19,02,-1.60
2008,01,21,19,03,-1.60
2008,01,21,19,04,-1.60
2008,01,21,19,05,-1.60
2008,01,21,19,06,-1.70
2008,01,21,19,07,-1.70
2008,01,21,19,08,-1.70
2008,01,21,19,09,-1.70
2008,01,21,19,10,-1.80
2008,01,21,19,11,-1.80
2008,01,21,19,12,-1.80
2008,01,21,19,13,-1.80
2008,01,21,19,14,-1.80
2008,01,21,19,15,-1.80
2008,01,21,19,16,-1.80
2008,01,21,19,17,-1.90
2008,01,21,19,18,-1.90
2008,01,21,19,19,-1.90
2008,01,21,19,20,-1.90
2008,01,21,19,21,-1.90
2008,01,21,19,22,-1.80
2008,01,21,19,23,-1.80
2008,01,21,19,24,-1.80
2008,01,21,19,25,-1.80
2008,01,21,19,26,-1.80
2008,01,21,19,27,-1.80
2008,01,21,19,28,-1.80
2008,01,21,19,29,-1.80
2008,01,21,19,30,-1.80
2008,01,21,19,31,-1.80
2008,01,21,19,32,-1.80
2008,01,21,19,33,-1.90
2008,01,21,19,34,-1.90
2008,01,21,19,35,-1.90
2008,01,21,19,36,-1.90
2008,01,21,19,37,-2.00
2008,01,21,19,38,-2.00
2008,01,21,19,39,-2.00
2008,01,21,19,40,-2.10
2008,01,21,19,41,-2.10
2008,01,21,19,42,-2.10
2008,01,21,19,43,-2.10
2008,01,21,19,44,-2.10
2008,01,21,19,45,-2.10
2008,01,21,19,46,-2.10
2008,01,21,19,47,-2.10
2008,01,21,19,48,-2.10
2008,01,21,19,49,-2.10
2008,01,21,19,50,-2.10
2008,01,21,19,51,-2.10
2008,01,21,19,52,-2.10
2008,01,21,19,53,-2.20
2008,01,21,19,54,-2.20
2008,01,21,19,55,-2.20
2008,01,21,19,56,-2.20
2008,01,21,19,57,-2.20
2008,01,21,19,58,-2.20
2008,01,21,19,59,-2.20
2008,01,21,20,00,-2.20
2008,01,21,20,01,-2.20
2008,01,21,20,02,-2.20
2008,01,21,20,03,-2.20
2008,01,21,20,04,-2.20
2008,01,21,20,05,-2.20
2008,01,21,20,06,-2.20
2008,01,21,20,07,-2.20
2008,01,21,20,08,-2.20